Content
SEND FEEDBACK

Daily
Averages
Monthly
Summary
United States of America

KANAB, UTAH


Home > North America > United States > Utah
Elevation: 4530 feet     Latitude: 37 06N     Longitude: 111 46W

WEATHER
 
SELECT A DAY
Number of Records: 197,737;   Date Range: 1/1/95 - 11/19/14
 
SHARE

PRINT THIS DATA

[ ← Previous Day ]
WEATHER ALMANAC - DECEMBER 31, 2013
[ Next Day → ]
[ °C ]   °F
Weather ElementAverageHighLow
Temperature35.9 °F46 °F (2:53 pm)28 °F (6:53 am)
Dewpoint17.6 °F19 °F (8:53 am)15.1 °F (4:53 am)
Humidity48.4 %64 % (3:53 am)31 % (2:53 pm)
Barometer30.27 in30.35 in (7:53 am)30.20 in (3:53 pm)
Wind Speed1.5 mph5.8 mph (1:53 pm)
Weather ElementAverage
Visibility8.2 mi
Wind DirectionENE (74.2 °)

Weather ElementTotal
Precipitation---
Heating Degree Days28 (Base 65)
Averaged from 26 records on December 31, 2013
WEATHER CONDITIONS BREAKOUT
WIND DIRECTION BREAKOUT
WEATHER BY HOUR - DECEMBER 31, 2013
[ °C ]   °F
Local TimeTemperatureDewpointHumidityBarometerVisibilityWind DirectionWind SpeedGust SpeedPrecipitationEventsConditions
12:57 AM30.9 °F16.0 °F54 %30.31 in1.8 miCalmHaze
1:21 AM30.9 °F16.0 °F54 %30.31 in4.0 miWest (260°)3.5 mphHaze
1:53 AM30.9 °F16.0 °F54 %30.32 in10.0 miCalmClear
2:53 AM30.0 °F16.0 °F56 %30.33 in10.0 miCalmClear
3:53 AM28.9 °F18.0 °F64 %30.33 in10.0 miCalmClear
4:53 AM28.9 °F15.1 °F56 %30.31 in2.5 miCalmHaze
5:04 AM28.9 °F15.1 °F56 %30.30 in6.0 miCalmHaze
5:53 AM28.9 °F16.0 °F58 %30.34 in3.0 miCalmHaze
6:53 AM28.0 °F17.1 °F63 %30.34 in6.0 miSW (220°)3.5 mphHaze
7:53 AM28.0 °F17.1 °F63 %30.35 in5.0 miWSW (250°)4.6 mphHaze
8:53 AM33.1 °F19.0 °F56 %30.35 in10.0 miCalmClear
9:53 AM36.0 °F19.0 °F50 %30.35 in10.0 miCalmClear
10:53 AM39.0 °F19.0 °F45 %30.34 in10.0 miNW (310°)3.5 mphClear
11:53 AM41.0 °F19.0 °F41 %30.30 in10.0 miCalmClear
12:53 PM43.0 °F19.0 °F38 %30.27 in10.0 miNNE (30°)3.5 mphClear
1:53 PM45.0 °F18.0 °F34 %30.22 in10.0 miNorth (360°)5.8 mphClear
2:53 PM46.0 °F17.1 °F31 %30.21 in10.0 miCalmClear
3:53 PM46.0 °F17.1 °F31 %30.20 in10.0 miCalmClear
4:53 PM44.1 °F17.1 °F34 %30.20 in10.0 miNNE (30°)3.5 mphClear
5:53 PM41.0 °F18.0 °F40 %30.21 in10.0 miCalmClear
6:53 PM39.9 °F19.0 °F43 %30.22 in10.0 miCalmClear
7:53 PM41.0 °F19.0 °F41 %30.21 in10.0 miWSW (240°)3.5 mphOvercast
8:53 PM39.0 °F18.0 °F43 %30.21 in10.0 miESE (120°)3.5 mphMostly Cloudy
9:53 PM37.9 °F18.0 °F45 %30.20 in10.0 miESE (110°)3.5 mphClear
10:53 PM35.1 °F19.0 °F52 %30.20 in10.0 miCalmClear
11:53 PM33.1 °F19.0 °F56 %30.21 in4.0 miCalmHaze
Hourly data recorded from KPGA, located miles away from Kanab, Utah







STORIES FROM OUR PARTNERS